[[{"header":{"parameterUnit":"m.s-1","parameterCategory":1,"la1":30.2991,"la2":30.254,"lo1":-89.0895,"lo2":-89.0444,"dy":0.0017,"dx":0.0017,"nx":28,"ny":28,"refTime":"2024-02-12T09:00:00:Z","depth":0,"parameterNumber":2,"parameterNumberName":"U-component_of_WINDS"},"data":[0,0,0,0,0,0,0,0,0,0,0,0,0,0,0,0,0,0,0,0,0,0,0,0,0,0,0,0,0,0,0,0,0,0,0,0,0,0,0,0,0,0,0,0,0,0,0,0,0,0,0,0,0,0,0,0,0,0,6.9993,6.9995,0,7.0165,7.0167,7.0169,7.0119,7.0116,7.0112,7.0109,7.0286,7.0293,7.0301,0,0,0,0,0,0,0,0,0,0,0,0,0,6.9625,6.9632,6.9993,6.9995,6.9998,7.0165,7.0167,7.0169,7.012,7.0116,7.0111,7.0107,7.0283,7.0292,7.0302,0,0,0,0,0,0,0,0,0,0,0,0,0,6.979,6.9635,6.9993,6.9993,6.9995,7.0164,7.0167,7.017,7.0121,7.0116,7.011,7.0105,7.028,7.0292,7.0303,7.0483,0,0,7.034,7.0345,0,0,0,0,0,0,0,0,6.9781,6.9804,6.9991,6.9993,6.9996,7.0115,7.0102,7.0275,7.0122,7.0073,7.0109,7.0103,7.0233,7.0249,7.0293,7.0492,7.0499,7.0341,7.0348,7.0354,7.0357,0,0,0,0,0,0,0,6.9769,6.9796,7.0061,6.9994,6.9997,6.9985,7.0003,7.0135,7.0181,7.0077,7.0074,7.0095,7.0234,7.0281,7.0296,7.0502,7.0341,7.0351,7.0359,7.0363,7.0861,7.0866,0,0,0,0,0,0,6.9756,6.9787,7.0056,7.0066,6.9873,6.9996,7.0016,7.0082,7.0179,7.0189,7.0099,7.0092,7.0263,7.0283,7.0302,7.0522,7.0353,7.0365,7.0372,7.0855,7.0862,7.0868,0,0,0,0,0,0,6.9748,6.978,7.0049,6.9926,6.9959,7.0008,7.0083,7.0088,7.0136,7.0196,7.0204,7.0139,7.026,7.0286,7.0439,7.0527,7.037,7.0381,7.0848,7.0857,7.0865,7.096,0,0,0,0,0,0,6.9738,6.9778,6.9846,6.9928,6.9966,7.0182,7.0089,7.0096,7.0157,7.0149,7.0236,7.0245,7.0258,7.0422,7.0451,7.0541,7.039,7.084,7.0852,7.0862,7.0949,7.0971,7.099,0,0,0,0,0,6.9725,6.9865,6.985,6.9882,7.0052,7.0187,7.0209,7.0221,7.0164,7.0233,7.0273,7.0242,7.0513,7.0438,7.0471,7.0565,7.0834,7.0848,7.0861,7.094,7.0967,7.0989,0,0,0,0,0,0,6.9792,6.9876,6.9859,7.003,7.0102,7.0179,7.0266,7.0248,7.0338,7.0327,7.0338,7.0358,7.0516,7.0556,7.0471,7.0746,7.0665,7.0686,7.0714,7.074,7.076,7.0747,7.04,0,0,0,0,0,6.9827,6.993,6.9997,7.0142,7.0179,7.0217,7.0276,7.0279,7.0354,7.0384,7.0434,7.0509,7.0611,7.0677,7.0774,7.0955,7.0974,7.1036,7.1057,7.1073,7.1091,7.1192,7.1221,7.0913,7.0913,7.0912,0,0,6.99,6.9958,7.0022,7.0157,7.0213,7.032,7.0243,7.0358,7.0438,7.0402,7.055,7.059,7.0674,7.0843,7.092,7.0881,7.118,7.109,7.1103,7.1112,7.1209,7.1238,7.1264,7.0922,7.092,7.0919,0,0,7.0087,7.0141,7.0269,7.0327,7.0413,7.0438,7.0469,7.0549,7.0574,7.0723,7.0699,7.0795,7.097,7.1031,7.1085,7.13,7.1276,7.1331,7.1437,7.1535,7.156,7.1581,7.1659,7.1687,7.1349,7.1349,7.1349,0,7.0167,7.0327,7.0336,7.0456,7.0516,7.0489,7.0619,7.0675,7.0789,7.0832,7.0787,7.1008,7.1062,7.1246,7.1299,7.1343,7.138,7.1321,7.1555,7.1577,7.1597,7.1672,7.1701,7.1355,7.1354,7.1354,7.1353,0,7.0421,7.0533,7.0625,7.0736,7.0808,7.0932,7.0961,7.1033,7.1031,7.1061,7.1215,7.128,7.139,7.1434,7.1432,7.1619,7.1593,7.1552,7.1471,7.1633,7.1703,7.1732,7.1364,7.1362,7.136,7.1358,0,0,7.0654,7.0771,7.0805,7.0856,7.0951,7.1037,7.1161,7.127,7.1332,7.1412,7.1517,7.1667,7.163,7.1692,7.1697,7.1784,7.1952,7.1732,7.1735,7.1772,7.2164,7.2195,7.2227,7.1937,7.1942,7.1947,7.2157,0,7.0851,7.1068,7.1082,7.1279,7.1383,7.136,7.1468,7.1539,7.1571,7.1665,7.1701,7.1808,7.175,7.1788,7.1872,7.1913,7.2031,7.1898,7.2036,7.2041,7.2016,7.2264,7.2296,7.2492,7.2185,7.2189,7.2193,0,7.1109,7.1197,7.1405,7.1487,7.1531,7.1628,7.173,7.182,7.19,7.1918,7.1989,7.1983,7.2111,7.2026,7.2205,7.2115,7.2172,7.2201,7.2209,7.2223,7.2127,7.2285,7.2554,7.2584,7.2236,7.2232,7.2229,0,7.126,7.1431,7.1578,7.1623,7.1721,7.1791,7.1835,7.191,7.1976,7.2065,7.2108,7.2211,7.2268,7.2349,7.2372,7.2308,7.2551,7.2467,7.257,7.257,7.2622,7.2619,7.2905,7.2659,7.2658,7.2658,7.2657,0,7.1478,7.1606,7.1648,7.1738,7.1882,7.1898,7.204,7.208,7.2148,7.2247,7.2234,7.2327,7.2351,7.245,7.2469,7.2615,7.2641,7.2659,7.2663,7.2661,7.2659,7.2699,7.2686,7.2666,7.2664,7.2662,7.2661,0,7.1671,7.1703,7.1862,7.1944,7.1967,7.207,7.214,7.2228,7.2259,7.2385,7.2416,7.2465,7.258,7.2611,7.2749,7.2762,7.2935,7.2925,7.2908,7.2908,7.301,7.3,7.3332,7.3377,7.31,7.3103,7.3105,0,7.1808,7.1906,7.1999,7.2064,7.2112,7.2218,7.2285,7.2305,7.2375,7.2476,7.2552,7.2666,7.2758,7.2944,7.2993,7.3099,7.3093,7.3202,7.3109,7.3105,7.3096,7.309,7.3101,7.322,7.3223,7.3225,7.3227,0,7.2049,7.2061,7.2158,7.2262,7.2342,7.2425,7.2504,7.2558,7.259,7.267,7.2788,7.286,7.3002,7.3116,7.3224,7.3271,7.3256,7.3256,7.3286,7.3285,7.3271,7.3281,7.2957,7.3248,7.3246,7.3245,7.3243,7.3243,7.2219,7.2306,7.2386,7.2495,7.2557,7.2632,7.2719,7.2762,7.2861,7.2978,7.2984,7.3113,7.3193,7.3337,7.339,7.3492,7.3459,7.3502,7.3513,7.3523,7.3533,7.3255,7.3512,7.3511,7.3511,7.351,7.351,0,7.246,7.2511,7.2611,7.2723,7.281,7.2787,7.2874,7.2949,7.3062,7.3138,7.323,7.3367,7.3478,7.3537,7.3648,7.3718,7.3714,7.3747,7.3742,7.3754,7.3555,7.3519,7.3749,7.3749,7.3748,7.3748,7.3748,7.3748,7.2596,7.2743,7.2765,7.2944,7.2993,7.3119,7.3172,7.3241,7.3303,7.3456,7.3549,7.3586,7.3656,7.3772,7.3874,7.3889,7.3931,7.3968,7.3978,7.3792,7.3767,7.3744,7.371,7.3976,7.3977,7.4169,7.417,7.4172]},{"header":{"parameterUnit":"m.s-1","parameterCategory":1,"la1":30.2991,"la2":30.254,"lo1":-89.0895,"lo2":-89.0444,"dy":0.0017,"dx":0.0017,"nx":28,"ny":28,"refTime":"2024-02-12T09:00:00:Z","depth":0,"parameterNumber":3,"parameterNumberName":"V-component_of_WINDS"},"data":[0,0,0,0,0,0,0,0,0,0,0,0,0,0,0,0,0,0,0,0,0,0,0,0,0,0,0,0,0,0,0,0,0,0,0,0,0,0,0,0,0,0,0,0,0,0,0,0,0,0,0,0,0,0,0,0,0,0,-6.2271,-6.2273,0,-6.2424,-6.2425,-6.2427,-6.2403,-6.24,-6.2397,-6.2395,-6.2549,-6.2556,-6.2562,0,0,0,0,0,0,0,0,0,0,0,0,0,-6.1957,-6.1962,-6.2271,-6.2273,-6.2275,-6.2423,-6.2426,-6.2428,-6.2403,-6.24,-6.2397,-6.2394,-6.2547,-6.2555,-6.2563,0,0,0,0,0,0,0,0,0,0,0,0,0,-6.21,-6.1964,-6.227,-6.228,-6.2283,-6.2423,-6.2426,-6.2428,-6.2404,-6.24,-6.2396,-6.2392,-6.2545,-6.2554,-6.2564,-6.2703,0,0,-6.2594,-6.2598,0,0,0,0,0,0,0,0,-6.2091,-6.2111,-6.2277,-6.228,-6.2283,-6.239,-6.2371,-6.252,-6.2405,-6.2358,-6.2395,-6.239,-6.2499,-6.2513,-6.255,-6.271,-6.2717,-6.2595,-6.2601,-6.2605,-6.2608,0,0,0,0,0,0,0,-6.2082,-6.2104,-6.2331,-6.2279,-6.2283,-6.2277,-6.2293,-6.2399,-6.2449,-6.2362,-6.236,-6.2379,-6.25,-6.2541,-6.2553,-6.2719,-6.2595,-6.2603,-6.2609,-6.2613,-6.3003,-6.3007,0,0,0,0,0,0,-6.2069,-6.2096,-6.2326,-6.2336,-6.2176,-6.2286,-6.2304,-6.236,-6.2448,-6.2457,-6.2382,-6.2377,-6.2526,-6.2542,-6.2559,-6.2728,-6.2605,-6.2614,-6.262,-6.2998,-6.3004,-6.3008,0,0,0,0,0,0,-6.2062,-6.209,-6.232,-6.2216,-6.2245,-6.2295,-6.2359,-6.2365,-6.2405,-6.2463,-6.2471,-6.2414,-6.2523,-6.2545,-6.2668,-6.2733,-6.2619,-6.2628,-6.2993,-6.3,-6.3006,-6.3067,0,0,0,0,0,0,-6.2053,-6.2088,-6.2141,-6.2217,-6.225,-6.2427,-6.2363,-6.2371,-6.2422,-6.2417,-6.2495,-6.2505,-6.2522,-6.2653,-6.2678,-6.2745,-6.2635,-6.2987,-6.2996,-6.3004,-6.306,-6.3075,-6.3089,0,0,0,0,0,-6.2042,-6.2152,-6.2144,-6.2172,-6.2319,-6.2431,-6.245,-6.2468,-6.2428,-6.2482,-6.2519,-6.2502,-6.2722,-6.2666,-6.2693,-6.2764,-6.2983,-6.2994,-6.3003,-6.3053,-6.3072,-6.3088,0,0,0,0,0,0,-6.2081,-6.2162,-6.2154,-6.2292,-6.2355,-6.2427,-6.2495,-6.2488,-6.2563,-6.2555,-6.2574,-6.2592,-6.2717,-6.2753,-6.2689,-6.2904,-6.2847,-6.2863,-6.2876,-6.2894,-6.2909,-6.2897,-6.2643,0,0,0,0,0,-6.2106,-6.2191,-6.2257,-6.2372,-6.2404,-6.2445,-6.2494,-6.2503,-6.2569,-6.2595,-6.2641,-6.2706,-6.2789,-6.2844,-6.2924,-6.3065,-6.3082,-6.3127,-6.3142,-6.3153,-6.3167,-6.3245,-6.3266,-6.3041,-6.3041,-6.3041,0,0,-6.2157,-6.2212,-6.2264,-6.2381,-6.2431,-6.2518,-6.2467,-6.2561,-6.2626,-6.2609,-6.2728,-6.2765,-6.2838,-6.2971,-6.3031,-6.3004,-6.3233,-6.3166,-6.3175,-6.3182,-6.3257,-6.3278,-6.3297,-6.3048,-6.3047,-6.3046,0,0,-6.2296,-6.2346,-6.2447,-6.2499,-6.2576,-6.2602,-6.2627,-6.2701,-6.2724,-6.2845,-6.2834,-6.2911,-6.3055,-6.3107,-6.3153,-6.3313,-6.33,-6.3339,-6.3414,-6.349,-6.3507,-6.3523,-6.358,-6.3601,-6.3352,-6.3352,-6.3352,0,-6.235,-6.2482,-6.25,-6.2597,-6.2648,-6.2638,-6.2741,-6.279,-6.2889,-6.2924,-6.2893,-6.3074,-6.3122,-6.3267,-6.3307,-6.3344,-6.3372,-6.3329,-6.3503,-6.3519,-6.3534,-6.3589,-6.3611,-6.3356,-6.3356,-6.3355,-6.3355,0,-6.2545,-6.2637,-6.2709,-6.2806,-6.2866,-6.2965,-6.2998,-6.3057,-6.3061,-6.309,-6.3213,-6.3271,-6.3363,-6.3398,-6.3402,-6.3545,-6.3526,-6.3499,-6.3442,-6.356,-6.3611,-6.3632,-6.3362,-6.3361,-6.3359,-6.3358,0,0,-6.2711,-6.2818,-6.2844,-6.2888,-6.2973,-6.3044,-6.3143,-6.3234,-6.3284,-6.3352,-6.3435,-6.3558,-6.3534,-6.3586,-6.3596,-6.3663,-6.3786,-6.3628,-6.363,-6.3655,-6.3947,-6.3966,-6.399,-6.3779,-6.3783,-6.3786,-6.3941,0,-6.2858,-6.3033,-6.3053,-6.3209,-6.3294,-6.3286,-6.3372,-6.3433,-6.3464,-6.354,-6.3574,-6.3661,-6.3623,-6.3654,-6.3719,-6.3757,-6.3845,-6.3746,-6.3856,-6.3859,-6.3837,-6.4017,-6.4038,-6.4181,-6.3961,-6.3964,-6.3967,0,-6.3052,-6.3128,-6.3292,-6.3366,-6.3402,-6.3479,-6.3565,-6.3638,-6.3707,-6.3725,-6.3784,-6.3786,-6.3888,-6.3827,-6.3968,-6.39,-6.3946,-6.3972,-6.3978,-6.3988,-6.392,-6.4033,-6.4227,-6.4249,-6.3999,-6.3996,-6.3994,0,-6.3157,-6.33,-6.3417,-6.3455,-6.3544,-6.3598,-6.3638,-6.3703,-6.3757,-6.3831,-6.3866,-6.3952,-6.3998,-6.4064,-6.4089,-6.4043,-6.4229,-6.417,-6.4246,-6.4245,-6.4285,-6.4282,-6.449,-6.4315,-6.4315,-6.4314,-6.4314,0,-6.3319,-6.342,-6.3465,-6.3537,-6.3651,-6.3673,-6.3784,-6.3821,-6.388,-6.3959,-6.3957,-6.4031,-6.4059,-6.4138,-6.4158,-6.4272,-6.4293,-6.431,-6.4314,-6.431,-6.4308,-6.434,-6.433,-6.432,-6.4319,-6.4318,-6.4317,0,-6.3455,-6.3489,-6.3617,-6.3691,-6.3712,-6.3792,-6.3855,-6.3925,-6.3955,-6.4055,-6.408,-6.4127,-6.422,-6.4252,-6.4364,-6.4377,-6.4509,-6.4505,-6.4486,-6.4487,-6.4561,-6.4554,-6.4796,-6.4829,-6.4633,-6.4635,-6.4636,0,-6.3555,-6.3633,-6.3716,-6.3769,-6.3811,-6.3897,-6.3952,-6.3977,-6.4034,-6.412,-6.4179,-6.4271,-6.4346,-6.4495,-6.4539,-6.4625,-6.4622,-6.4701,-6.4635,-6.4629,-6.4623,-6.4618,-6.4626,-6.4714,-6.4716,-6.4717,-6.4719,0,-6.373,-6.3744,-6.3824,-6.3911,-6.3977,-6.4046,-6.4113,-6.4156,-6.4191,-6.4256,-6.4351,-6.4409,-6.4524,-6.4616,-6.4704,-6.4744,-6.4738,-6.4739,-6.4761,-6.4758,-6.4744,-6.4753,-6.452,-6.4733,-6.4732,-6.4731,-6.473,-6.4729,-6.3852,-6.3921,-6.3991,-6.408,-6.4133,-6.4196,-6.4265,-6.4305,-6.4385,-6.4481,-6.4491,-6.4593,-6.4661,-6.4779,-6.4823,-6.4904,-6.4882,-6.4914,-6.4922,-6.4929,-6.4935,-6.4732,-6.492,-6.492,-6.4919,-6.4919,-6.4919,0,-6.4027,-6.4072,-6.4154,-6.4248,-6.4318,-6.4307,-6.4381,-6.444,-6.4531,-6.4595,-6.4669,-6.4779,-6.4868,-6.492,-6.5009,-6.5064,-6.5063,-6.5086,-6.5082,-6.5092,-6.495,-6.4922,-6.5085,-6.5085,-6.5085,-6.5085,-6.5085,-6.5085,-6.4127,-6.4243,-6.4265,-6.4408,-6.4452,-6.4553,-6.4596,-6.4654,-6.4705,-6.4828,-6.4903,-6.4936,-6.4996,-6.5089,-6.5171,-6.5183,-6.5216,-6.5242,-6.5253,-6.5119,-6.5102,-6.5085,-6.5059,-6.5249,-6.5249,-6.5388,-6.5389,-6.539]}]]